Weather in Tazlarovo

Russia / Republic of Bashkortostan     52°08′26″N   56°43′17″E
temp.,
°C
wind,
m/s
gust,
m/s
humid.,
%
clouds,
%
prec.,
mm/h
press.,
hPa
HPBL,
m
1 march, mon
mon123:00−10ssw359693 0.5 1008156
02:00−13ssw3597100 0.3 1011139
05:00−14s2497100 0.4 1013137
08:00−16s229799 0.2 101558
11:00−13ssw239399 0.3 1016269
14:00−11wsw3491100 0.1 1017396
17:00−11wsw3494100 0.3 1018331
20:00−14wsw239798 0.1 101981
2 march, tue
tue223:00−17sw229997 0.3 102020
02:00−20sw23100100 0.1 102023
05:00−22sw22100100 0.1 102122
08:00−24ssw23100100 0.1 102032
11:00−21ssw35100100 0.1 1019251
14:00−17ssw5798100 0.1 1016333
17:00−14ssw61195100 0.3 1014473
20:00−12ssw61295100 0.9 1012615
3 march, wed
wed323:00−7ssw61395100 2.1 1009730
02:00−5ssw71396100 1.6 1006769
05:00−5sw71396100 3.7 1005751
08:00−4sw61296100 1.9 1003659
11:00−3sw61097100 3.4 1004643
14:00−1sw5799100 1.0 1003577
17:00−1wsw4697100 2.2 1003436
20:00−4w1298100 0.6 100343
4 march, thu
thu423:00−6nnw229699 0.9 100425
02:00−11nw119789 0.0 100421
05:00−11wsw119794 0.1 100621
08:00−12wsw229798 0.1 100733
11:00−10w369499 0.3 1009338
14:00−9w5794100 0.1 1010443
17:00−9wsw5894100 0.2 1011538
20:00−10sw61195100 0.5 1012471
5 march, fri
fri523:00−8sw61395100 1.2 1012775
02:00−5sw81695100 0.6 1009869
05:00−4sw91695100 1.8 1008919
08:00−2sw101793100 1.1 10071054
11:00−3sw101694100 1.4 10071060
14:00−2wsw101597100 1.8 10081044
17:00−2wsw81397100 4.3 1010896
20:00−2sw71297100 1.9 1012642